,,Stat6,,Stat2,,Stat8,,Stat9,,Stat10,,Wind1,,Wind1,
time,status,PA1M_AVG,status,PR1M_SUM,status,RH1M_AVG,status,SR1M_AVG,status,TA1M_AVG,status,W1dAve1m,status,W1sAve1m,
2008-12-19, 00:00:00,VALID,917.566,VALID,0,VALID,100,VALID,-0.0339617,VALID,20.1808,VALID,41,VALID,0,
2008-12-19, 00:01:00,VALID,917.58,VALID,0,VALID,100,VALID,-0.0849042,VALID,20.1516,VALID,41,VALID,0,
2008-12-19, 00:02:00,VALID,917.585,VALID,0,VALID,100,VALID,-0.0169808,VALID,20.1316,VALID,39,VALID,0,
2008-12-19, 00:03:00,VALID,917.585,VALID,0,VALID,100,VALID,-0.0339617,VALID,20.1386,VALID,31,VALID,0,
2008-12-19, 00:04:00,VALID,917.6,VALID,0,VALID,100,VALID,-0.0679233,VALID,20.1578,VALID,23,VALID,0.337426,
2008-12-19, 00:05:00,VALID,917.594,VALID,0,VALID,100,VALID,-0.0509425,VALID,20.1641,VALID,20,VALID,0,
2008-12-19, 00:06:00,VALID,917.59,VALID,0,VALID,100,VALID,-0.0169808,VALID,20.1841,VALID,19,VALID,0,
2008-12-19, 00:07:00,VALID,917.568,VALID,0,VALID,100,VALID,-0.0679233,VALID,20.1841,VALID,19,VALID,0,
2008-12-19, 00:08:00,VALID,917.544,VALID,0,VALID,100,VALID,-0.0339617,VALID,20.1868,VALID,19,VALID,0,
2008-12-19, 00:09:00,VALID,917.518,VALID,0,VALID,100,VALID,0,VALID,20.1963,VALID,19,VALID,0,
2008-12-19, 00:10:00,VALID,917.504,VALID,0,VALID,100,VALID,-0.0509425,VALID,20.2095,VALID,19,VALID,0,
2008-12-19, 00:11:00,VALID,917.502,VALID,0,VALID,100,VALID,-0.0679233,VALID,20.2487,VALID,19,VALID,0,
2008-12-19, 00:12:00,VALID,917.51,VALID,0,VALID,100,VALID,-0.0339617,VALID,20.2712,VALID,19,VALID,0,
2008-12-19, 00:13:00,VALID,917.513,VALID,0,VALID,100,VALID,-0.0169808,VALID,20.3039,VALID,19,VALID,0,
2008-12-19, 00:14:00,VALID,917.514,VALID,0,VALID,100,VALID,-0.0339617,VALID,20.3398,VALID,19,VALID,0,
2008-12-19, 00:15:00,VALID,917.517,VALID,0,VALID,100,VALID,0,VALID,20.3588,VALID,19,VALID,0,
2008-12-19, 00:16:00,VALID,917.501,VALID,0,VALID,100,VALID,-0.0169808,VALID,20.3815,VALID,19,VALID,0,
2008-12-19, 00:17:00,VALID,917.489,VALID,0,VALID,100,VALID,0,VALID,20.3945,VALID,23,VALID,0,
2008-12-19, 00:18:00,VALID,917.485,VALID,0,VALID,100,VALID,0,VALID,20.3975,VALID,23,VALID,0,
2008-12-19, 00:19:00,VALID,917.462,VALID,0,VALID,100,VALID,-0.0509425,VALID,20.404,VALID,23,VALID,0,
2008-12-19, 00:20:00,VALID,917.442,VALID,0,VALID,100,VALID,-0.0169808,VALID,20.4177,VALID,20,VALID,0,
2008-12-19, 00:21:00,VALID,917.435,VALID,0,VALID,100,VALID,-0.0339617,VALID,20.424,VALID,282,VALID,0,
2008-12-19, 00:22:00,VALID,917.433,VALID,0,VALID,99.9084,VALID,-0.0679233,VALID,20.4015,VALID,267,VALID,0,
2008-12-19, 00:23:00,VALID,917.453,VALID,0,VALID,99.7892,VALID,-0.118866,VALID,20.4055,VALID,267,VALID,0,
2008-12-19, 00:24:00,VALID,917.449,VALID,0,VALID,99.7688,VALID,-0.0849042,VALID,20.4317,VALID,267,VALID,0,
2008-12-19, 00:25:00,VALID,917.451,VALID,0,VALID,99.69,VALID,-0.118866,VALID,20.4539,VALID,267,VALID,0,
2008-12-19, 00:26:00,VALID,917.457,VALID,0,VALID,99.5107,VALID,-0.152827,VALID,20.4907,VALID,267,VALID,0,
2008-12-19, 00:27:00,VALID,917.461,VALID,0,VALID,99.4624,VALID,-0.101885,VALID,20.4961,VALID,263,VALID,0,
2008-12-19, 00:28:00,VALID,917.453,VALID,0,VALID,99.3505,VALID,-0.152827,VALID,20.5034,VALID,167,VALID,0,
2008-12-19, 00:29:00,VALID,917.461,VALID,0,VALID,99.339,VALID,-0.135847,VALID,20.4585,VALID,155,VALID,0,
2008-12-19, 00:30:00,VALID,917.459,VALID,0,VALID,99.512,VALID,-0.101885,VALID,20.412,VALID,155,VALID,0,
2008-12-19, 00:31:00,VALID,917.459,VALID,0,VALID,99.6251,VALID,-0.118866,VALID,20.3736,VALID,156,VALID,0,
2008-12-19, 00:32:00,VALID,917.463,VALID,0,VALID,99.765,VALID,-0.135847,VALID,20.3381,VALID,156,VALID,0,
2008-12-19, 00:33:00,VALID,917.471,VALID,0,VALID,99.8769,VALID,-0.118866,VALID,20.3319,VALID,156,VALID,0,
2008-12-19, 00:34:00,VALID,917.472,VALID,0,VALID,99.9865,VALID,-0.169808,VALID,20.3059,VALID,156,VALID,0,
2008-12-19, 00:35:00,VALID,917.494,VALID,0,VALID,100,VALID,-0.118866,VALID,20.2987,VALID,156,VALID,0,
2008-12-19, 00:36:00,VALID,917.478,VALID,0,VALID,100,VALID,-0.135847,VALID,20.2962,VALID,155,VALID,0,
2008-12-19, 00:37:00,VALID,917.49,VALID,0,VALID,100,VALID,-0.101885,VALID,20.2819,VALID,155,VALID,0,
2008-12-19, 00:38:00,VALID,917.467,VALID,0,VALID,100,VALID,-0.0339617,VALID,20.2777,VALID,166,VALID,0,
2008-12-19, 00:39:00,VALID,917.446,VALID,0,VALID,100,VALID,-0.0169808,VALID,20.2939,VALID,171,VALID,0,
2008-12-19, 00:40:00,VALID,917.425,VALID,0,VALID,99.9891,VALID,-0.0169808,VALID,20.3169,VALID,176,VALID,0,
2008-12-19, 00:41:00,VALID,917.372,VALID,0,VALID,99.9392,VALID,-0.0509425,VALID,20.3201,VALID,178,VALID,0,
2008-12-19, 00:42:00,VALID,917.334,VALID,0,VALID,99.91,VALID,-0.0169808,VALID,20.3331,VALID,182,VALID,0,
2008-12-19, 00:43:00,VALID,917.288,VALID,0,VALID,99.8146,VALID,-0.0169808,VALID,20.3488,VALID,182,VALID,0,
2008-12-19, 00:44:00,VALID,917.256,VALID,0,VALID,99.7447,VALID,-0.0169808,VALID,20.3785,VALID,183,VALID,0,
2008-12-19, 00:45:00,VALID,917.221,VALID,0,VALID,99.5768,VALID,-0.0169808,VALID,20.3715,VALID,190,VALID,0.0168679,
2008-12-19, 00:46:00,VALID,917.211,VALID,0,VALID,99.4751,VALID,-0.0339617,VALID,20.3888,VALID,188,VALID,0,
2008-12-19, 00:47:00,VALID,917.188,VALID,0,VALID,99.4967,VALID,-0.0509425,VALID,20.3983,VALID,188,VALID,0,
2008-12-19, 00:48:00,VALID,917.191,VALID,0,VALID,99.5527,VALID,0,VALID,20.4115,VALID,188,VALID,0,
2008-12-19, 00:49:00,VALID,917.186,VALID,0,VALID,99.4204,VALID,-0.0339617,VALID,20.4177,VALID,178,VALID,0,
2008-12-19, 00:50:00,VALID,917.186,VALID,0,VALID,99.3479,VALID,-0.0679233,VALID,20.4015,VALID,181,VALID,0,
2008-12-19, 00:51:00,VALID,917.183,VALID,0,VALID,99.2958,VALID,-0.0509425,VALID,20.385,VALID,181,VALID,0,
2008-12-19, 00:52:00,VALID,917.196,VALID,0,VALID,99.2856,VALID,-0.0339617,VALID,20.3718,VALID,181,VALID,0,
2008-12-19, 00:53:00,VALID,917.195,VALID,0,VALID,99.3873,VALID,-0.0509425,VALID,20.375,VALID,181,VALID,0,
2008-12-19, 00:54:00,VALID,917.206,VALID,0,VALID,99.3428,VALID,-0.0509425,VALID,20.3947,VALID,189,VALID,0,
2008-12-19, 00:55:00,VALID,917.209,VALID,0,VALID,99.3365,VALID,-0.0339617,VALID,20.388,VALID,189,VALID,0,
2008-12-19, 00:56:00,VALID,917.21,VALID,0,VALID,99.3263,VALID,-0.0679233,VALID,20.418,VALID,189,VALID,0,
2008-12-19, 00:57:00,VALID,917.177,VALID,0,VALID,99.3072,VALID,-0.0679233,VALID,20.4207,VALID,189,VALID,0,
2008-12-19, 00:58:00,VALID,917.157,VALID,0,VALID,99.3339,VALID,-0.0509425,VALID,20.434,VALID,189,VALID,0,
2008-12-19, 00:59:00,VALID,917.128,VALID,0,VALID,99.0682,VALID,-0.0679233,VALID,20.4342,VALID,164,VALID,0,
2008-12-19, 01:00:00,VALID,917.11,VALID,0,VALID,99.0694,VALID,-0.0169808,VALID,20.4275,VALID,157,VALID,0,
2008-12-19, 01:01:00,VALID,917.078,VALID,0,VALID,98.9957,VALID,-0.0849042,VALID,20.4275,VALID,157,VALID,0,
2008-12-19, 01:02:00,VALID,917.05,VALID,0,VALID,98.9906,VALID,-0.0679233,VALID,20.4245,VALID,157,VALID,0,
2008-12-19, 01:03:00,VALID,917.026,VALID,0,VALID,98.9779,VALID,-0.0339617,VALID,20.424,VALID,155,VALID,0,
2008-12-19, 01:04:00,VALID,916.995,VALID,0,VALID,98.9346,VALID,-0.0509425,VALID,20.3975,VALID,155,VALID,0,
2008-12-19, 01:05:00,VALID,916.979,VALID,0,VALID,98.9372,VALID,-0.0339617,VALID,20.3875,VALID,133,VALID,0,
2008-12-19, 01:06:00,VALID,916.954,VALID,0,VALID,98.8901,VALID,0,VALID,20.3585,VALID,99,VALID,0,
2008-12-19, 01:07:00,VALID,916.942,VALID,0,VALID,98.9156,VALID,0,VALID,20.3331,VALID,99,VALID,0,
2008-12-19, 01:08:00,VALID,916.932,VALID,0,VALID,98.9703,VALID,-0.0339617,VALID,20.2874,VALID,99,VALID,0,
2008-12-19, 01:09:00,VALID,916.919,VALID,0,VALID,99.058,VALID,-0.0339617,VALID,20.2622,VALID,121,VALID,0,
2008-12-19, 01:10:00,VALID,916.91,VALID,0,VALID,99.189,VALID,-0.0509425,VALID,20.236,VALID,135,VALID,0,
2008-12-19, 01:11:00,VALID,916.894,VALID,0,VALID,99.3072,VALID,-0.0339617,VALID,20.2265,VALID,122,VALID,0,
2008-12-19, 01:12:00,VALID,916.874,VALID,0,VALID,99.353,VALID,0,VALID,20.2095,VALID,133,VALID,0,
2008-12-19, 01:13:00,VALID,916.844,VALID,0,VALID,99.3416,VALID,0,VALID,20.1863,VALID,129,VALID,0,
2008-12-19, 01:14:00,VALID,916.824,VALID,0,VALID,99.381,VALID,-0.0339617,VALID,20.1381,VALID,119,VALID,0,
2008-12-19, 01:15:00,VALID,916.813,VALID,0,VALID,99.4954,VALID,-0.0339617,VALID,20.1032,VALID,136,VALID,0,
2008-12-19, 01:16:00,VALID,916.785,VALID,0,VALID,99.6607,VALID,-0.0509425,VALID,20.057,VALID,135,VALID,0,
2008-12-19, 01:17:00,VALID,916.77,VALID,0,VALID,99.8706,VALID,-0.0169808,VALID,20.0183,VALID,138,VALID,0,
2008-12-19, 01:18:00,VALID,916.762,VALID,0,VALID,100,VALID,0,VALID,20.0118,VALID,147,VALID,0,
2008-12-19, 01:19:00,VALID,916.761,VALID,0,VALID,100,VALID,-0.0169808,VALID,19.9824,VALID,137,VALID,0,
2008-12-19, 01:20:00,VALID,916.761,VALID,0,VALID,100,VALID,-0.0509425,VALID,19.9564,VALID,143,VALID,0,
2008-12-19, 01:21:00,VALID,916.762,VALID,0,VALID,100,VALID,-0.0339617,VALID,19.9304,VALID,145,VALID,0,
2008-12-19, 01:22:00,VALID,916.746,VALID,0,VALID,100,VALID,-0.0509425,VALID,19.9015,VALID,152,VALID,0,
2008-12-19, 01:23:00,VALID,916.733,VALID,0,VALID,100,VALID,-0.0339617,VALID,19.8883,VALID,143,VALID,0,
2008-12-19, 01:24:00,VALID,916.719,VALID,0,VALID,100,VALID,-0.0339617,VALID,19.859,VALID,148,VALID,0,
2008-12-19, 01:25:00,VALID,916.704,VALID,0,VALID,100,VALID,-0.0509425,VALID,19.8431,VALID,146,VALID,0,
2008-12-19, 01:26:00,VALID,916.685,VALID,0,VALID,100,VALID,-0.0679233,VALID,19.8206,VALID,147,VALID,0,
2008-12-19, 01:27:00,VALID,916.659,VALID,0,VALID,100,VALID,-0.0509425,VALID,19.8111,VALID,143,VALID,0,
2008-12-19, 01:28:00,VALID,916.637,VALID,0,VALID,100,VALID,-0.0339617,VALID,19.8039,VALID,138,VALID,0.0992759,
2008-12-19, 01:29:00,VALID,916.621,VALID,0,VALID,100,VALID,-0.0339617,VALID,19.7872,VALID,139,VALID,0,
2008-12-19, 01:30:00,VALID,916.603,VALID,0,VALID,100,VALID,-0.0169808,VALID,19.7936,VALID,135,VALID,0.280488,
2008-12-19, 01:31:00,VALID,916.583,VALID,0,VALID,100,VALID,-0.0679233,VALID,19.7879,VALID,142,VALID,0.188859,
2008-12-19, 01:32:00,VALID,916.577,VALID,0,VALID,100,VALID,-0.0509425,VALID,19.7877,VALID,137,VALID,0,
2008-12-19, 01:33:00,VALID,916.568,VALID,0,VALID,100,VALID,-0.0339617,VALID,19.7907,VALID,143,VALID,0,
2008-12-19, 01:34:00,VALID,916.561,VALID,0,VALID,100,VALID,-0.0679233,VALID,19.7941,VALID,153,VALID,0.00446429,
2008-12-19, 01:35:00,VALID,916.544,VALID,0,VALID,100,VALID,-0.0849042,VALID,19.8111,VALID,147,VALID,0.0645461,
2008-12-19, 01:36:00,VALID,916.521,VALID,0,VALID,100,VALID,-0.0509425,VALID,19.8006,VALID,143,VALID,0,
2008-12-19, 01:37:00,VALID,916.508,VALID,0,VALID,100,VALID,-0.0849042,VALID,19.8106,VALID,159,VALID,0.0158253,
2008-12-19, 01:38:00,VALID,916.47,VALID,0,VALID,100,VALID,-0.0339617,VALID,19.8071,VALID,163,VALID,0.152158,
2008-12-19, 01:39:00,VALID,916.439,VALID,0,VALID,100,VALID,-0.0509425,VALID,19.7909,VALID,155,VALID,0.0621189,
2008-12-19, 01:40:00,VALID,916.428,VALID,0,VALID,100,VALID,-0.0679233,VALID,19.7884,VALID,153,VALID,0.0288881,
2008-12-19, 01:41:00,VALID,916.399,VALID,0,VALID,100,VALID,-0.0679233,VALID,19.7682,VALID,144,VALID,0.0423018,
2008-12-19, 01:42:00,VALID,916.392,VALID,0,VALID,100,VALID,-0.0849042,VALID,19.7684,VALID,148,VALID,0.263393,
2008-12-19, 01:43:00,VALID,916.368,VALID,0,VALID,100,VALID,-0.0509425,VALID,19.7787,VALID,146,VALID,0.23247,
2008-12-19, 01:44:00,VALID,916.341,VALID,0,VALID,100,VALID,-0.0849042,VALID,19.7647,VALID,139,VALID,0.126302,
2008-12-19, 01:45:00,VALID,916.322,VALID,0,VALID,100,VALID,-0.0679233,VALID,19.7585,VALID,142,VALID,0.225497,
2008-12-19, 01:46:00,VALID,916.318,VALID,0,VALID,100,VALID,-0.0849042,VALID,19.7652,VALID,140,VALID,0.204215,
2008-12-19, 01:47:00,VALID,916.293,VALID,0,VALID,100,VALID,-0.0679233,VALID,19.7592,VALID,145,VALID,0.161458,
2008-12-19, 01:48:00,VALID,916.258,VALID,0,VALID,100,VALID,-0.0849042,VALID,19.749,VALID,140,VALID,0.00260417,
2008-12-19, 01:49:00,VALID,916.218,VALID,0,VALID,100,VALID,-0.0679233,VALID,19.736,VALID,139,VALID,0.00114329,
2008-12-19, 01:50:00,VALID,916.195,VALID,0,VALID,100,VALID,-0.0169808,VALID,19.7258,VALID,137,VALID,0.00111607,
2008-12-19, 01:51:00,VALID,916.176,VALID,0,VALID,100,VALID,-0.0339617,VALID,19.7193,VALID,146,VALID,0.000355114,
2008-12-19, 01:52:00,VALID,916.153,VALID,0,VALID,100,VALID,-0.0339617,VALID,19.7193,VALID,154,VALID,0,
2008-12-19, 01:53:00,VALID,916.144,VALID,0,VALID,100,VALID,-0.0169808,VALID,19.7223,VALID,150,VALID,0,
2008-12-19, 01:54:00,VALID,916.119,VALID,0,VALID,100,VALID,-0.0509425,VALID,19.7258,VALID,149,VALID,0,
2008-12-19, 01:55:00,VALID,916.116,VALID,0,VALID,100,VALID,0,VALID,19.7422,VALID,156,VALID,0,
2008-12-19, 01:56:00,VALID,916.105,VALID,0,VALID,100,VALID,-0.0169808,VALID,19.7517,VALID,164,VALID,0,
2008-12-19, 01:57:00,VALID,916.092,VALID,0,VALID,100,VALID,-0.0339617,VALID,19.7682,VALID,170,VALID,0,
2008-12-19, 01:58:00,VALID,916.082,VALID,0,VALID,100,VALID,-0.0509425,VALID,19.7807,VALID,170,VALID,0,
2008-12-19, 01:59:00,VALID,916.082,VALID,0,VALID,100,VALID,-0.0509425,VALID,19.7874,VALID,150,VALID,0,
2008-12-19, 02:00:00,VALID,916.068,VALID,0,VALID,100,VALID,-0.0169808,VALID,19.7814,VALID,146,VALID,0.146532,
2008-12-19, 02:01:00,VALID,916.065,VALID,0,VALID,100,VALID,-0.0679233,VALID,19.7515,VALID,148,VALID,0,
2008-12-19, 02:02:00,VALID,916.069,VALID,0,VALID,100,VALID,-0.0679233,VALID,19.739,VALID,141,VALID,0,
2008-12-19, 02:03:00,VALID,916.081,VALID,0,VALID,100,VALID,-0.101885,VALID,19.6871,VALID,119,VALID,0,
2008-12-19, 02:04:00,VALID,916.062,VALID,0,VALID,100,VALID,-0.0849042,VALID,19.6451,VALID,119,VALID,0,
2008-12-19, 02:05:00,VALID,916.065,VALID,0,VALID,100,VALID,-0.0339617,VALID,19.596,VALID,119,VALID,0.0681818,
2008-12-19, 02:06:00,VALID,916.059,VALID,0,VALID,100,VALID,-0.0509425,VALID,19.5535,VALID,119,VALID,0.00104167,
2008-12-19, 02:07:00,VALID,916.06,VALID,0,VALID,100,VALID,-0.0509425,VALID,19.5214,VALID,119,VALID,0,
2008-12-19, 02:08:00,VALID,916.061,VALID,0,VALID,100,VALID,-0.0679233,VALID,19.4822,VALID,116,VALID,0,
2008-12-19, 02:09:00,VALID,916.052,VALID,0,VALID,100,VALID,-0.0509425,VALID,19.4567,VALID,114,VALID,0,
2008-12-19, 02:10:00,VALID,916.055,VALID,0,VALID,100,VALID,-0.0849042,VALID,19.4335,VALID,118,VALID,0.0269886,
2008-12-19, 02:11:00,VALID,916.046,VALID,0,VALID,100,VALID,-0.0509425,VALID,19.414,VALID,114,VALID,0.0024858,
2008-12-19, 02:12:00,VALID,916.032,VALID,0,VALID,100,VALID,-0.0679233,VALID,19.4048,VALID,105,VALID,0.0425781,
2008-12-19, 02:13:00,VALID,916.005,VALID,0,VALID,100,VALID,-0.0849042,VALID,19.3786,VALID,125,VALID,0.0846354,
2008-12-19, 02:14:00,VALID,915.995,VALID,0,VALID,100,VALID,-0.101885,VALID,19.3756,VALID,126,VALID,0,
2008-12-19, 02:15:00,VALID,915.99,VALID,0,VALID,100,VALID,-0.0849042,VALID,19.3664,VALID,135,VALID,0.0411458,
2008-12-19, 02:16:00,VALID,915.973,VALID,0,VALID,100,VALID,-0.101885,VALID,19.3696,VALID,160,VALID,0.0436357,
2008-12-19, 02:17:00,VALID,915.972,VALID,0,VALID,100,VALID,-0.101885,VALID,19.3724,VALID,159,VALID,0.035061,
2008-12-19, 02:18:00,VALID,915.973,VALID,0,VALID,100,VALID,-0.0849042,VALID,19.3684,VALID,151,VALID,0,
2008-12-19, 02:19:00,VALID,915.967,VALID,0,VALID,100,VALID,-0.0339617,VALID,19.3749,VALID,148,VALID,0,
2008-12-19, 02:20:00,VALID,915.975,VALID,0,VALID,100,VALID,-0.0679233,VALID,19.3784,VALID,155,VALID,0,
2008-12-19, 02:21:00,VALID,915.979,VALID,0,VALID,100,VALID,-0.0849042,VALID,19.3853,VALID,161,VALID,0,
2008-12-19, 02:22:00,VALID,915.958,VALID,0,VALID,100,VALID,-0.0849042,VALID,19.3983,VALID,153,VALID,0,
2008-12-19, 02:23:00,VALID,915.952,VALID,0,VALID,100,VALID,-0.0849042,VALID,19.3886,VALID,138,VALID,0,
2008-12-19, 02:24:00,VALID,915.946,VALID,0,VALID,100,VALID,-0.101885,VALID,19.3686,VALID,141,VALID,0.656068,
2008-12-19, 02:25:00,VALID,915.936,VALID,0,VALID,100,VALID,-0.101885,VALID,19.3594,VALID,148,VALID,0.0331182,
2008-12-19, 02:26:00,VALID,915.93,VALID,0,VALID,100,VALID,-0.0849042,VALID,19.31,VALID,143,VALID,0.0012429,
2008-12-19, 02:27:00,VALID,915.917,VALID,0,VALID,100,VALID,-0.0849042,VALID,19.3172,VALID,143,VALID,0.0426962,
2008-12-19, 02:28:00,VALID,915.907,VALID,0,VALID,100,VALID,-0.0849042,VALID,19.3137,VALID,151,VALID,0,
2008-12-19, 02:29:00,VALID,915.901,VALID,0,VALID,100,VALID,-0.0849042,VALID,19.2718,VALID,118,VALID,0.0450149,
2008-12-19, 02:30:00,VALID,915.9,VALID,0,VALID,100,VALID,-0.0679233,VALID,19.2161,VALID,110,VALID,0,
2008-12-19, 02:31:00,VALID,915.873,VALID,0,VALID,100,VALID,-0.0679233,VALID,19.1872,VALID,111,VALID,0,
2008-12-19, 02:32:00,VALID,915.874,VALID,0,VALID,100,VALID,-0.101885,VALID,19.168,VALID,118,VALID,0,
2008-12-19, 02:33:00,VALID,915.859,VALID,0,VALID,100,VALID,-0.0679233,VALID,19.1348,VALID,122,VALID,0,
2008-12-19, 02:34:00,VALID,915.847,VALID,0,VALID,100,VALID,-0.0679233,VALID,19.1285,VALID,121,VALID,0,
2008-12-19, 02:35:00,VALID,915.849,VALID,0,VALID,100,VALID,-0.0849042,VALID,19.1285,VALID,124,VALID,0,
2008-12-19, 02:36:00,VALID,915.842,VALID,0,VALID,100,VALID,-0.0849042,VALID,19.0989,VALID,125,VALID,0,
2008-12-19, 02:37:00,VALID,915.854,VALID,0,VALID,100,VALID,-0.0339617,VALID,19.1058,VALID,125,VALID,0,
2008-12-19, 02:38:00,VALID,915.86,VALID,0,VALID,100,VALID,-0.0849042,VALID,19.0891,VALID,126,VALID,0,
2008-12-19, 02:39:00,VALID,915.871,VALID,0,VALID,100,VALID,-0.0849042,VALID,19.0799,VALID,130,VALID,0,
2008-12-19, 02:40:00,VALID,915.87,VALID,0,VALID,100,VALID,-0.0679233,VALID,19.0766,VALID,146,VALID,0,
2008-12-19, 02:41:00,VALID,915.856,VALID,0,VALID,100,VALID,-0.0509425,VALID,19.0799,VALID,156,VALID,0,
2008-12-19, 02:42:00,VALID,915.864,VALID,0,VALID,100,VALID,-0.101885,VALID,19.0964,VALID,161,VALID,0.00138889,
2008-12-19, 02:43:00,VALID,915.857,VALID,0,VALID,100,VALID,-0.101885,VALID,19.0896,VALID,159,VALID,0.196429,
2008-12-19, 02:44:00,VALID,915.836,VALID,0,VALID,100,VALID,-0.0849042,VALID,19.0926,VALID,155,VALID,0.453497,
2008-12-19, 02:45:00,VALID,915.824,VALID,0,VALID,100,VALID,-0.0679233,VALID,19.1028,VALID,133,VALID,0.00855655,
2008-12-19, 02:46:00,VALID,915.826,VALID,0,VALID,100,VALID,-0.0679233,VALID,19.0796,VALID,135,VALID,0.0472222,
2008-12-19, 02:47:00,VALID,915.813,VALID,0,VALID,100,VALID,-0.101885,VALID,19.0537,VALID,136,VALID,0.12793,
2008-12-19, 02:48:00,VALID,915.785,VALID,0,VALID,100,VALID,-0.0849042,VALID,19.0085,VALID,137,VALID,0.0737645,
2008-12-19, 02:49:00,VALID,915.794,VALID,0,VALID,100,VALID,-0.0339617,VALID,18.9561,VALID,138,VALID,0.0562855,
2008-12-19, 02:50:00,VALID,915.814,VALID,0,VALID,100,VALID,-0.0509425,VALID,18.9404,VALID,133,VALID,0.0910823,
2008-12-19, 02:51:00,VALID,915.811,VALID,0,VALID,100,VALID,-0.0169808,VALID,18.9269,VALID,137,VALID,0.153706,
2008-12-19, 02:52:00,VALID,915.81,VALID,0,VALID,100,VALID,0.0169808,VALID,18.9232,VALID,140,VALID,0.10766,
2008-12-19, 02:53:00,VALID,915.814,VALID,0,VALID,100,VALID,-0.0169808,VALID,18.9239,VALID,145,VALID,0.00725446,
2008-12-19, 02:54:00,VALID,915.803,VALID,0,VALID,100,VALID,0,VALID,18.9272,VALID,150,VALID,0.194382,
2008-12-19, 02:55:00,VALID,915.793,VALID,0,VALID,100,VALID,0,VALID,18.9402,VALID,145,VALID,0.222747,
2008-12-19, 02:56:00,VALID,915.778,VALID,0,VALID,100,VALID,-0.0339617,VALID,18.9436,VALID,143,VALID,0.177912,
2008-12-19, 02:57:00,VALID,915.777,VALID,0,VALID,100,VALID,-0.0169808,VALID,18.9434,VALID,142,VALID,0.246449,
2008-12-19, 02:58:00,VALID,915.765,VALID,0,VALID,100,VALID,-0.0169808,VALID,18.9369,VALID,146,VALID,0.290305,
2008-12-19, 02:59:00,VALID,915.733,VALID,0,VALID,100,VALID,-0.0509425,VALID,18.9569,VALID,151,VALID,0.135603,
2008-12-19, 03:00:00,VALID,915.739,VALID,0,VALID,100,VALID,-0.0169808,VALID,18.9566,VALID,143,VALID,0.293155,
2008-12-19, 03:01:00,VALID,915.73,VALID,0,VALID,100,VALID,-0.0169808,VALID,18.9404,VALID,135,VALID,0.46684,
2008-12-19, 03:02:00,VALID,915.719,VALID,0,VALID,100,VALID,-0.0169808,VALID,18.9304,VALID,130,VALID,0.319602,
2008-12-19, 03:03:00,VALID,915.722,VALID,0,VALID,100,VALID,-0.0849042,VALID,18.9337,VALID,143,VALID,0.43471,
2008-12-19, 03:04:00,VALID,915.7,VALID,0,VALID,100,VALID,-0.0849042,VALID,18.9631,VALID,141,VALID,0.433333,
2008-12-19, 03:05:00,VALID,915.698,VALID,0,VALID,100,VALID,-0.0679233,VALID,18.9923,VALID,134,VALID,0.287305,
2008-12-19, 03:06:00,VALID,915.697,VALID,0,VALID,100,VALID,-0.0339617,VALID,19.0115,VALID,143,VALID,0.56936,
2008-12-19, 03:07:00,VALID,915.677,VALID,0,VALID,100,VALID,0,VALID,19.0375,VALID,141,VALID,0.443359,
2008-12-19, 03:08:00,VALID,915.666,VALID,0,VALID,100,VALID,-0.0169808,VALID,19.0375,VALID,139,VALID,0.242378,
2008-12-19, 03:09:00,VALID,915.665,VALID,0,VALID,100,VALID,-0.0339617,VALID,19.0442,VALID,142,VALID,0.0078125,
2008-12-19, 03:10:00,VALID,915.647,VALID,0,VALID,100,VALID,0,VALID,19.0245,VALID,143,VALID,0.108422,
2008-12-19, 03:11:00,VALID,915.652,VALID,0,VALID,100,VALID,-0.0679233,VALID,19.0213,VALID,132,VALID,0,
2008-12-19, 03:12:00,VALID,915.633,VALID,0,VALID,100,VALID,-0.0169808,VALID,19.0375,VALID,127,VALID,0.0498935,
2008-12-19, 03:13:00,VALID,915.629,VALID,0,VALID,100,VALID,0,VALID,19.0505,VALID,118,VALID,0.0809152,
2008-12-19, 03:14:00,VALID,915.621,VALID,0,VALID,100,VALID,0,VALID,19.0796,VALID,122,VALID,0.0429688,
2008-12-19, 03:15:00,VALID,915.61,VALID,0,VALID,100,VALID,-0.0169808,VALID,19.0956,VALID,133,VALID,0.0647321,
2008-12-19, 03:16:00,VALID,915.602,VALID,0,VALID,100,VALID,-0.0169808,VALID,19.1088,VALID,121,VALID,0,
2008-12-19, 03:17:00,VALID,915.599,VALID,0,VALID,100,VALID,-0.0509425,VALID,19.1283,VALID,118,VALID,0,
2008-12-19, 03:18:00,VALID,915.584,VALID,0,VALID,100,VALID,-0.0169808,VALID,19.1443,VALID,110,VALID,0.00109012,
2008-12-19, 03:19:00,VALID,915.569,VALID,0,VALID,100,VALID,0,VALID,19.1672,VALID,106,VALID,0,
2008-12-19, 03:20:00,VALID,915.568,VALID,0,VALID,100,VALID,0,VALID,19.1765,VALID,105,VALID,0,
2008-12-19, 03:21:00,VALID,915.547,VALID,0,VALID,100,VALID,0,VALID,19.2094,VALID,106,VALID,0,
2008-12-19, 03:22:00,VALID,915.532,VALID,0,VALID,100,VALID,-0.0339617,VALID,19.2289,VALID,108,VALID,0,
2008-12-19, 03:23:00,VALID,915.528,VALID,0,VALID,99.9771,VALID,-0.0169808,VALID,19.2256,VALID,112,VALID,0,
2008-12-19, 03:24:00,VALID,915.515,VALID,0,VALID,99.8833,VALID,-0.0169808,VALID,19.2191,VALID,111,VALID,0,
2008-12-19, 03:25:00,VALID,915.511,VALID,0,VALID,99.8337,VALID,0,VALID,19.2027,VALID,98,VALID,0,
2008-12-19, 03:26:00,VALID,915.507,VALID,0,VALID,99.8795,VALID,-0.0169808,VALID,19.1897,VALID,120,VALID,0,
2008-12-19, 03:27:00,VALID,915.511,VALID,0,VALID,99.9379,VALID,-0.0169808,VALID,19.1899,VALID,126,VALID,0,
2008-12-19, 03:28:00,VALID,915.508,VALID,0,VALID,99.9087,VALID,-0.0169808,VALID,19.1637,VALID,130,VALID,0,
2008-12-19, 03:29:00,VALID,915.506,VALID,0,VALID,99.9644,VALID,-0.0169808,VALID,19.1478,VALID,151,VALID,0,
2008-12-19, 03:30:00,VALID,915.528,VALID,0,VALID,100,VALID,-0.0339617,VALID,19.1216,VALID,150,VALID,0,
2008-12-19, 03:31:00,VALID,915.515,VALID,0,VALID,100,VALID,0,VALID,19.1024,VALID,147,VALID,0,
2008-12-19, 03:32:00,VALID,915.527,VALID,0,VALID,100,VALID,-0.0679233,VALID,19.0827,VALID,140,VALID,0,
2008-12-19, 03:33:00,VALID,915.538,VALID,0,VALID,100,VALID,-0.0169808,VALID,19.0699,VALID,137,VALID,0,
2008-12-19, 03:34:00,VALID,915.543,VALID,0,VALID,100,VALID,-0.0169808,VALID,19.0602,VALID,138,VALID,0,
2008-12-19, 03:35:00,VALID,915.538,VALID,0,VALID,100,VALID,-0.0339617,VALID,19.0405,VALID,137,VALID,0,
2008-12-19, 03:36:00,VALID,915.542,VALID,0,VALID,100,VALID,-0.0169808,VALID,19.0243,VALID,136,VALID,0,
2008-12-19, 03:37:00,VALID,915.549,VALID,0,VALID,100,VALID,0,VALID,19.0145,VALID,136,VALID,0,
2008-12-19, 03:38:00,VALID,915.544,VALID,0,VALID,100,VALID,0,VALID,18.9983,VALID,145,VALID,0,
2008-12-19, 03:39:00,VALID,915.534,VALID,0,VALID,100,VALID,-0.0169808,VALID,18.9953,VALID,147,VALID,0,
2008-12-19, 03:40:00,VALID,915.51,VALID,0,VALID,100,VALID,-0.0339617,VALID,18.9691,VALID,147,VALID,0,
2008-12-19, 03:41:00,VALID,915.496,VALID,0,VALID,100,VALID,0,VALID,18.9459,VALID,147,VALID,0,
2008-12-19, 03:42:00,VALID,915.463,VALID,0,VALID,100,VALID,-0.0169808,VALID,18.9402,VALID,147,VALID,0,
2008-12-19, 03:43:00,VALID,915.442,VALID,0,VALID,100,VALID,-0.0339617,VALID,18.9045,VALID,147,VALID,0,